Regional Weather Roundup
Issued by NWS

Home | Current Version | Previous Version | Graphics & Text | Print | Product List | Glossary On
Versions: 1 2 3 4 5 6 7 8 9 10 11 12 13 14 15 16 17 18 19 20 21 22 23 24 25 26 27 28 29 30 31 32 33 34 35 36 37 38 39 40 41 42 43 44 45 46 47 48 49 50
000
ASUS43 KFSD 050302
RWRSD

WEATHER ROUNDUP FOR SOUTH DAKOTA
NATIONAL WEATHER SERVICE SIOUX FALLS SD
1000 PM CDT FRI SEP 04 2015

NOTE: "FAIR" INDICATES FEW OR NO CLOUDS BELOW 12,000 FEET WITH NO
SIGNIFICANT WEATHER AND/OR OBSTRUCTIONS TO VISIBILITY.


SDZ001>005-009-010-012>017-050400-
NORTHWEST AND NORTH CENTRAL SOUTH DAKOTA

CITY           SKY/WX    TMP DP  RH WIND       PRES   REMARKS
BUFFALO          N/A     72  64  76 NE13      29.77R
FAITH            N/A     77  56  48 E12       29.81R
MOBRIDGE       CLEAR     77  73  87 E12       29.78R
$$

SDZ012>016-024>037-041>051-057-063-072>074-050400-
SOUTHWEST AND SOUTH CENTRAL SOUTH DAKOTA

CITY           SKY/WX    TMP DP  RH WIND       PRES   REMARKS
RAPID CTY ARPT MOCLDY    73  59  61 SE9       29.82R
PIERRE         MOCLDY    77  66  68 E8        29.76R
CUSTER         MOCLDY    74  41  30 SE5       29.99R
PHILIP         PTCLDY    71  64  78 E6        29.78R
PINE RIDGE     MOCLDY    74  52  46 N3        29.83R
WINNER         FAIR      81  63  54 S8        29.79R
$$

SDZ004>011-016>023-039-040-050400-
NORTHEAST SOUTH DAKOTA

CITY           SKY/WX    TMP DP  RH WIND       PRES   REMARKS
ABERDEEN       CLEAR     74  69  85 SE7       29.80S
WATERTOWN      PTCLDY    76  70  82 S13       29.85S
BROOKINGS      MOCLDY    77  70  78 SE16G22   29.89S
$$

SDZ017-020-022-023-036>040-048>070-050400-
SOUTHEAST SOUTH DAKOTA

CITY           SKY/WX    TMP DP  RH WIND       PRES   REMARKS
SIOUX FALLS    CLEAR     78  71  79 SE13      29.86R
HURON          CLOUDY    78  72  81 SE12      29.79R
MITCHELL       MOCLDY    80  73  79 SE12      29.80R
YANKTON        CLEAR     79  72  78 SE10      29.82R
$$

ABBREVIATIONS USED IN REMARKS
   TC - TEMPERATURE IN CELSIUS
  WCI - WIND CHILL INDEX
   HX - HEAT INDEX
  VSB - VISIBILITY




USA.gov is the U.S. government's official web portal to all federal, state and local government web resources and services.